Weather in Talovka

Russia / Republic of Buryatia     52°06′41″N   107°04′23″E
temp.,
°C
wind,
m/s
gust,
m/s
humid.,
%
clouds,
%
prec.,
mm/h
press.,
hPa
HPBL,
m
17 april, sat
sat1723:000se346673 0.0 101645
02:00−1sse336950 0.0 101438
05:00−2sse32715 0.0 101335
08:00+3se236078 0.0 1011123
11:00+10sse22478 0.0 1008630
14:00+13ssw23405 0.0 10051304
17:00+13ssw23435 0.0 10031043
20:00+4s326993 0.0 100515
18 april, sun
sun1823:00+2w357311 0.0 1006117
02:00−1wnw71497100 1.6 1014977
05:00−3wnw61189100 2.3 10181072
08:00−3nw51082100 2.7 10221222
11:00−2nw695314 0.3 10241430
14:000nw47405 0.3 10231556
17:000nnw34355 0.0 10221344
20:00−5sse116312 0.0 102410
19 april, mon
mon1923:00−4se346396 0.0 102385
02:00−5se366246 0.0 1021115
05:00−6se36616 0.0 1020109
08:00−2se354679 0.0 1019274
11:00+4se463774 0.0 1014642
14:00+10s24365 0.0 10091046
17:00+11s35435 0.0 1006611
20:00+3sse34685 0.0 100640
20 april, tue
tue2023:00+1s227467 0.0 100619
02:00−6sw359775 0.0 1013124
05:00−3nw3897100 0.2 1015288
08:00−1wnw4662100 0.3 1016671
11:000wnw345699 0.0 1015897
14:00+4wnw33435 0.0 10131065
17:00+4wnw224365 0.0 1011708
20:00−2w216358 0.0 101317
21 april, wed
wed2123:00−4wsw126838 0.0 101434
02:00−5w358145 0.0 1016219
05:00−4wnw379496 0.2 1016377
08:00−3wnw3686100 0.8 1017650
11:00−2nw5675100 0.4 10171082
14:00−1nw5676100 0.7 1017919
17:00−3nw5890100 2.4 1020780
20:00−4wnw3790100 3.4 1024589